Temp
62 62 61 62 62 63 63 63 63 63 63 63 63 61 61 62 62 62 62 62 62 62 62 62 62 63 64 63 63 64 63 63 62 61 61 61 60 60 60 59 58 59
62 62 63 63 62 62 63 63 62 62 61 62 62 61 60 61 61 62 61 61 62 62 61 61 62 62 62 62 62 62 61 61 61 62 61 60 59 60 60 59 59 58
62 62 62 62 62 62 62 62 62 61 61 61 61 61 61 61 61 61 61 61 62 61 61 61 61 61 62 61 61 62 61 60 60 59 61 60 59 60 60 59 58 59
61 62 62 63 62 62 61 61 61 61 60 60 61 62 63 63 62 61 61 63 61 60 60 60 61 61 61 61 60 60 60 60 60 60 60 58 60 61 59 59 58 57
61 61 62 62 62 62 61 61 61 61 61 61 61 61 62 61 61 61 60 60 60 59 60 60 60 61 60 60 60 59 58 59 58 60 60 59 58 59 58 59 59 59
61 62 62 61 62 61 61 61 61 61 61 61 60 61 61 62 61 61 61 59 59 60 59 58 59 60 60 60 59 60 59 60 58 59 60 59 58 57 61 59 59 58
61 61 61 61 61 61 61 61 61 61 61 60 60 60 60 60 61 61 61 60 59 60 59 58 58 58 58 59 59 58 58 58 57 59 60 57 58 56 59 59 59 59
61 61 62 61 61 60 60 60 60 60 60 60 60 60 61 60 60 61 60 60 59 58 57 58 58 58 57 58 59 57 56 58 58 57 57 56 56 57 57 60 58 58
61 61 61 60 60 60 60 61 60 60 61 60 60 60 61 61 61 60 60 59 59 57 57 57 58 57 56 58 57 57 57 56 57 56 56 56 56 57 58 57 57 57
61 60 60 60 60 60 60 60 61 60 61 60 60 60 60 61 61 60 59 59 58 56 57 57 57 57 57 57 57 56 56 56 54 55 56 57 58 57 57 58 58 57
58 59 59 59 58 59 59 60 60 60 61 61 60 60 62 61 60 59 59 58 59 57 56 57 58 57 57 56 55 55 57 56 54 54 55 57 57 57 60 58 58 58
58 58 58 59 59 59 59 60 60 61 61 62 62 62 62 62 60 60 61 59 58 59 59 58 57 57 57 56 54 53 53 53 54 55 56 55 55 56 57 56 57 56
57 57 58 59 59 59 60 61 60 60 61 61 62 63 62 61 59 59 58 59 59 59 58 57 56 56 56 54 54 53 54 53 53 54 55 55 54 55 55 56 56 56
56 57 57 58 59 60 60 60 60 60 60 60 61 62 61 61 60 59 56 57 56 56 55 55 54 53 52 53 53 54 54 54 55 56 55 55 55 55 55 56 56 56
56 57 57 58 58 59 59 60 59 59 60 61 61 60 60 58 58 58 57 55 54 54 54 53 51 49 49 49 53 54 55 55 56 57 56 56 55 55 56 56 57 56
57 57 58 58 59 58 58 59 59 59 59 59 59 57 56 57 57 57 57 55 53 53 52 51 49 49 49 47 51 57 56 57 56 56 57 57 56 56 56 56 57 57
57 57 58 58 58 57 57 58 58 59 59 58 57 57 56 56 57 56 54 53 52 51 49 49 47 48 44 44 48 52 57 57 56 56 56 57 57 56 55 55 55 56
56 57 57 57 57 58 57 58 57 57 57 57 57 56 55 55 54 53 52 51 51 50 48 47 47 45 42 48 47 49 53 57 57 57 56 56 55 55 55 54 54 54
56 56 56 56 57 57 57 57 56 56 56 56 55 55 54 53 52 51 50 51 51 50 48 47 46 43 43 45 46 47 49 54 56 56 56 55 56 55 55 54 52 52
54 54 54 55 55 55 56 56 56 55 54 55 54 53 52 51 50 49 49 50 50 49 47 46 46 43 43 44 45 46 48 52 57 57 56 55 55 55 55 55 54 54
54 54 54 54 55 55 54 54 54 54 54 53 53 52 51 50 50 49 49 49 49 49 48 46 45 40 43 45 46 47 48 51 56 56 55 55 55 55 55 54 54 54
54 53 53 54 54 55 54 54 54 53 52 52 51 50 49 49 49 49 48 48 48 48 47 46 45 40 40 44 46 46 49 55 56 56 55 53 52 52 53 53 53 53
53 54 53 53 53 54 54 53 52 52 51 50 48 47 47 47 48 48 48 48 47 47 46 44 44 42 40 41 46 47 51 56 56 54 52 50 49 49 50 51 51 50
52 52 53 53 53 53 52 52 52 51 50 49 47 46 45 46 46 45 45 46 46 45 45 43 43 43 40 41 42 47 52 56 54 52 50 48 48 48 48 48 50 52
51 51 51 52 52 52 52 52 51 50 49 48 47 46 45 45 45 44 44 44 45 45 47 44 43 43 41 40 41 44 51 54 53 51 49 48 48 46 46 46 46 45
50 50 50 50 51 52 52 51 51 49 48 47 47 46 45 45 45 44 43 43 44 44 44 44 43 43 41 40 41 42 45 52 52 51 49 48 49 49 47 46 46 46
MSLP
1013.74 1013.98 1014.34 1014.62 1014.86 1014.98 1015.03 1015.03 1014.98 1015.07 1015.07 1015.10 1015.30 1015.59 1015.91 1016.07 1016.18 1016.22 1016.30 1016.47 1016.54 1016.59 1016.66 1016.74 1016.74 1016.86 1016.98 1017.18 1017.34 1017.51 1017.71 1017.91 1018.10 1018.30 1018.47 1018.62 1018.83 1019.03 1019.22 1019.39 1019.51 1019.62
1013.30 1013.54 1013.78 1014.18 1014.54 1014.78 1014.91 1014.95 1015.03 1015.07 1015.15 1015.07 1015.18 1015.42 1015.71 1015.91 1016.07 1016.15 1016.34 1016.51 1016.54 1016.62 1016.66 1016.74 1016.78 1016.86 1017.07 1017.22 1017.39 1017.59 1017.78 1017.98 1018.18 1018.30 1018.47 1018.66 1018.83 1018.98 1019.10 1019.27 1019.39 1019.59
1012.91 1013.22 1013.51 1013.91 1014.27 1014.51 1014.71 1014.83 1014.95 1015.07 1015.18 1015.10 1015.15 1015.34 1015.71 1015.78 1015.98 1016.10 1016.34 1016.42 1016.54 1016.62 1016.74 1016.74 1016.86 1016.98 1017.10 1017.27 1017.39 1017.59 1017.78 1017.98 1018.18 1018.34 1018.42 1018.62 1018.83 1018.95 1019.07 1019.18 1019.39 1019.51
1012.66 1012.86 1013.15 1013.51 1013.95 1014.34 1014.54 1014.66 1014.78 1014.86 1015.03 1015.15 1015.15 1015.22 1015.30 1015.54 1015.83 1016.03 1016.18 1016.27 1016.47 1016.62 1016.71 1016.78 1016.91 1017.07 1017.18 1017.27 1017.42 1017.62 1017.74 1017.91 1018.03 1018.27 1018.42 1018.66 1018.74 1018.86 1019.07 1019.22 1019.39 1019.54
1012.59 1012.86 1013.10 1013.42 1013.86 1014.22 1014.51 1014.62 1014.71 1014.78 1014.91 1014.95 1015.07 1015.18 1015.30 1015.54 1015.83 1015.95 1016.15 1016.34 1016.42 1016.54 1016.66 1016.74 1016.86 1017.03 1017.18 1017.30 1017.42 1017.66 1017.86 1018.03 1018.18 1018.27 1018.42 1018.62 1018.78 1018.91 1019.07 1019.18 1019.39 1019.51
1012.95 1013.03 1013.22 1013.51 1013.83 1014.18 1014.51 1014.59 1014.59 1014.66 1014.83 1015.15 1015.34 1015.47 1015.42 1015.54 1015.74 1015.95 1016.15 1016.39 1016.47 1016.51 1016.66 1016.78 1016.95 1017.07 1017.18 1017.34 1017.54 1017.66 1017.91 1018.10 1018.22 1018.30 1018.42 1018.59 1018.83 1018.91 1019.03 1019.15 1019.30 1019.47
1013.39 1013.34 1013.47 1013.62 1013.83 1014.10 1014.39 1014.47 1014.59 1014.66 1014.78 1014.91 1015.15 1015.34 1015.91 1016.18 1015.83 1015.98 1016.18 1016.34 1016.51 1016.59 1016.71 1016.95 1017.10 1017.27 1017.34 1017.47 1017.62 1017.83 1017.95 1018.03 1018.22 1018.27 1018.34 1018.59 1018.74 1018.95 1019.03 1019.15 1019.22 1019.34
1013.62 1013.59 1013.62 1013.78 1013.95 1014.15 1014.39 1014.51 1014.66 1014.78 1014.91 1014.91 1015.07 1015.39 1015.54 1016.83 1016.27 1016.15 1016.22 1016.34 1016.54 1016.74 1016.83 1016.98 1017.18 1017.34 1017.51 1017.59 1017.71 1017.91 1018.07 1018.10 1018.18 1018.27 1018.39 1018.62 1018.78 1018.95 1019.10 1019.18 1019.22 1019.30
1013.51 1013.74 1013.83 1013.91 1014.03 1014.15 1014.34 1014.47 1014.66 1014.83 1014.86 1014.98 1015.18 1015.39 1015.22 1016.18 1016.47 1016.15 1016.30 1016.39 1016.54 1016.74 1016.86 1017.03 1017.22 1017.39 1017.54 1017.62 1017.74 1017.86 1017.98 1018.10 1018.10 1018.22 1018.42 1018.62 1018.83 1018.91 1019.03 1019.15 1019.22 1019.27
1013.74 1013.86 1014.18 1014.18 1014.18 1014.22 1014.27 1014.39 1014.59 1014.78 1014.91 1015.03 1015.30 1015.39 1015.22 1015.98 1016.10 1016.15 1016.30 1016.47 1016.62 1016.78 1016.91 1017.07 1017.30 1017.42 1017.54 1017.66 1017.71 1017.78 1017.91 1017.98 1018.10 1018.22 1018.39 1018.54 1018.62 1018.83 1018.98 1019.03 1019.07 1019.22
1014.39 1014.42 1014.47 1014.59 1014.71 1014.62 1014.59 1014.71 1014.86 1014.91 1014.98 1015.18 1015.42 1015.47 1015.42 1015.95 1016.03 1016.15 1016.30 1016.47 1016.62 1016.78 1016.95 1017.10 1017.22 1017.42 1017.59 1017.74 1017.83 1017.78 1017.78 1017.95 1018.10 1018.18 1018.34 1018.42 1018.59 1018.66 1018.74 1018.86 1019.03 1019.10
1014.03 1014.03 1014.27 1014.42 1014.62 1014.86 1015.07 1015.10 1015.34 1015.51 1015.47 1015.39 1015.39 1015.39 1015.54 1015.71 1015.91 1016.18 1016.27 1016.42 1016.54 1016.71 1016.83 1017.07 1017.22 1017.39 1017.51 1017.66 1017.78 1017.86 1017.95 1018.03 1018.07 1018.15 1018.22 1018.51 1018.78 1018.86 1018.91 1018.98 1019.10 1019.22
1014.18 1014.34 1014.18 1014.18 1014.22 1014.34 1014.51 1014.86 1015.10 1015.34 1015.62 1016.03 1015.71 1015.39 1015.51 1015.74 1016.03 1016.22 1016.34 1016.39 1016.59 1016.74 1016.91 1017.07 1017.27 1017.42 1017.59 1017.74 1017.83 1017.83 1017.91 1017.98 1018.27 1018.54 1018.66 1018.74 1018.91 1018.98 1019.07 1019.18 1019.27 1019.27
1014.07 1014.22 1014.27 1014.18 1014.27 1014.34 1014.39 1014.54 1014.95 1015.51 1015.74 1015.95 1016.30 1015.54 1015.59 1015.86 1016.18 1016.39 1016.59 1016.66 1016.86 1016.95 1017.10 1017.22 1017.39 1017.54 1017.66 1017.83 1017.91 1017.95 1017.98 1018.18 1018.39 1018.51 1018.74 1019.03 1019.18 1019.27 1019.34 1019.39 1019.47 1019.47
1014.10 1014.15 1014.18 1014.30 1014.30 1014.51 1014.66 1014.91 1015.15 1015.34 1015.51 1015.59 1016.18 1015.83 1015.86 1016.10 1016.34 1016.51 1016.66 1016.95 1017.15 1017.18 1017.30 1017.51 1017.59 1017.78 1017.95 1017.95 1017.86 1018.03 1018.10 1018.27 1018.51 1018.62 1018.83 1019.15 1019.39 1019.54 1019.62 1019.62 1019.71 1019.83
1013.98 1014.10 1014.10 1014.10 1014.22 1014.47 1014.78 1015.15 1015.34 1015.42 1015.71 1015.91 1016.15 1016.07 1016.18 1016.34 1016.51 1016.74 1016.86 1017.03 1017.22 1017.54 1017.71 1017.78 1018.03 1018.30 1018.34 1018.27 1018.10 1017.91 1018.22 1018.51 1018.71 1018.83 1018.95 1019.18 1019.47 1019.71 1019.86 1019.95 1019.98 1020.03
1013.95 1013.91 1013.86 1014.15 1014.34 1014.59 1015.18 1015.18 1015.42 1015.66 1015.83 1016.15 1016.15 1016.22 1016.39 1016.59 1016.74 1016.98 1017.34 1017.54 1017.66 1017.74 1017.83 1018.15 1018.51 1018.71 1018.54 1018.30 1018.15 1017.98 1018.22 1018.51 1018.74 1019.07 1019.15 1019.30 1019.51 1019.74 1020.07 1020.22 1020.27 1020.27
1014.27 1014.07 1014.07 1014.39 1014.62 1014.83 1015.30 1015.34 1015.59 1015.54 1016.07 1016.18 1016.22 1016.34 1016.78 1016.95 1017.18 1017.51 1017.74 1017.95 1018.15 1018.30 1018.42 1018.66 1018.78 1018.91 1018.59 1018.30 1018.22 1018.18 1018.22 1018.54 1018.83 1019.18 1019.51 1019.74 1019.95 1020.15 1020.30 1020.39 1020.51 1020.71
1014.83 1014.39 1014.34 1014.59 1014.78 1014.98 1015.34 1015.59 1015.78 1016.03 1016.27 1016.30 1016.59 1016.78 1017.03 1017.34 1017.74 1017.91 1018.10 1018.27 1018.27 1018.30 1018.66 1018.95 1018.95 1019.07 1018.74 1018.39 1018.51 1018.51 1018.47 1018.66 1019.15 1019.39 1019.62 1019.86 1020.03 1020.18 1020.34 1020.54 1020.83 1021.03
1015.42 1015.27 1015.18 1015.15 1015.27 1015.47 1015.66 1015.83 1016.03 1016.30 1016.51 1016.51 1016.86 1017.22 1017.47 1017.95 1018.22 1018.34 1018.51 1018.62 1018.78 1018.83 1019.07 1019.27 1019.27 1019.34 1018.95 1018.71 1018.74 1018.66 1018.71 1018.86 1019.30 1019.54 1019.83 1020.10 1020.34 1020.54 1020.51 1020.18 1020.22 1020.71
1015.95 1015.71 1015.78 1015.78 1015.71 1015.74 1016.03 1016.39 1016.59 1016.51 1016.98 1017.10 1017.22 1017.47 1017.91 1018.27 1018.47 1018.66 1018.95 1019.10 1019.22 1019.27 1019.30 1019.51 1019.86 1019.78 1019.47 1019.07 1018.78 1018.78 1018.86 1018.98 1019.39 1019.74 1020.10 1020.34 1020.54 1020.66 1021.10 1021.07 1020.95 1021.03
1016.30 1016.18 1016.22 1016.27 1016.15 1015.98 1016.18 1016.59 1016.83 1017.07 1017.39 1017.98 1018.07 1018.10 1018.47 1018.59 1018.95 1019.07 1019.27 1019.47 1019.62 1019.62 1019.51 1019.74 1020.10 1020.18 1019.98 1019.71 1019.15 1018.83 1018.86 1019.27 1019.71 1020.15 1020.66 1021.10 1021.34 1021.42 1021.47 1021.59 1021.47 1021.42
1016.91 1016.71 1016.71 1016.71 1016.74 1016.66 1016.78 1017.27 1017.66 1017.66 1017.95 1018.47 1019.07 1019.15 1019.34 1019.42 1019.42 1019.66 1019.78 1019.86 1019.98 1020.07 1020.07 1020.30 1020.51 1020.59 1020.47 1020.07 1019.74 1019.42 1019.30 1019.62 1019.86 1020.30 1020.95 1021.66 1022.27 1022.18 1021.91 1021.78 1022.03 1022.30
1017.71 1017.42 1017.30 1017.15 1017.22 1017.47 1017.47 1017.51 1017.98 1018.34 1018.51 1018.78 1019.39 1019.34 1019.83 1020.30 1020.30 1020.15 1020.30 1020.39 1020.47 1020.71 1020.86 1020.74 1020.91 1021.07 1020.98 1020.59 1020.15 1019.91 1019.71 1019.83 1020.18 1020.62 1021.34 1021.62 1022.34 1022.59 1022.42 1022.42 1022.51 1022.51
1018.42 1018.22 1018.07 1017.95 1017.78 1017.91 1018.07 1017.98 1018.30 1018.78 1019.07 1019.34 1019.83 1019.98 1020.30 1020.71 1020.54 1020.54 1020.71 1020.83 1020.98 1021.18 1021.27 1021.30 1021.54 1021.59 1021.62 1021.18 1020.83 1020.42 1020.27 1020.30 1020.54 1020.98 1021.51 1022.10 1022.47 1022.71 1022.78 1022.83 1023.03 1023.10
1019.07 1018.98 1018.91 1018.74 1018.59 1018.47 1018.47 1018.66 1018.74 1019.03 1019.34 1019.66 1020.10 1020.59 1020.71 1020.78 1020.95 1020.98 1021.27 1021.51 1021.59 1021.62 1021.83 1021.98 1022.07 1022.34 1022.22 1021.74 1021.34 1020.98 1020.66 1020.66 1020.91 1021.10 1021.74 1022.18 1022.34 1022.47 1022.66 1023.03 1023.22 1023.30
Wind_Speed
6 6 7 6 6 5 5 5 5 6 6 6 5 4 5 4 4 5 4 3 4 4 4 4 4 4 4 5 5 5 5 5 5 5 5 5 4 5 5 4 4 5
8 7 7 6 6 5 5 5 4 5 6 6 5 4 2 3 3 4 4 4 4 4 3 3 4 4 5 5 4 5 4 4 5 3 5 5 5 5 5 5 5 3
9 8 8 8 8 8 7 6 5 4 5 5 5 5 5 3 4 3 4 5 4 4 4 4 4 4 5 5 4 5 5 4 5 3 4 5 5 5 4 4 3 5
10 9 9 8 7 7 6 7 6 5 4 5 6 6 6 5 5 5 4 5 5 4 4 4 5 4 4 4 4 4 4 4 4 4 4 3 4 4 4 4 3 3
9 8 7 7 6 5 5 6 7 6 6 5 4 5 6 6 5 5 4 4 4 5 5 5 4 5 4 4 4 4 3 3 3 4 5 4 3 4 4 5 4 4
3 5 5 6 6 6 6 6 6 6 6 4 3 1 3 6 6 6 5 5 4 5 4 4 4 4 5 4 4 4 5 5 3 4 5 5 3 2 4 4 4 4
2 4 6 5 5 5 6 6 4 5 6 7 6 6 4 1 6 6 6 5 5 5 5 4 4 4 3 4 4 4 4 4 4 4 5 3 4 3 2 4 4 4
2 2 4 4 4 5 4 5 4 4 5 6 7 6 9 3 3 5 5 5 5 4 4 4 4 4 4 4 5 4 4 3 4 4 4 3 3 3 3 3 4 4
5 4 3 4 5 5 5 5 5 5 6 8 7 7 7 4 5 5 5 5 5 4 4 4 4 4 4 4 4 5 5 4 4 4 4 4 4 4 4 3 3 3
1 2 2 2 4 4 5 5 5 5 6 7 6 6 8 5 4 6 5 5 5 4 4 4 4 4 4 4 5 4 4 4 4 4 4 4 5 4 4 4 4 3
6 4 1 3 3 1 1 2 3 5 5 7 7 7 7 6 4 4 5 5 6 5 4 5 5 5 4 3 3 4 4 4 4 4 4 5 4 5 5 4 4 4
3 5 6 4 4 5 7 6 6 3 0 4 6 8 7 6 7 4 6 5 5 5 5 5 5 5 5 4 4 3 2 3 4 4 4 2 3 2 3 3 3 4
3 2 4 5 5 7 8 6 6 6 1 3 4 6 7 6 5 5 3 5 4 4 4 5 4 4 4 4 3 4 4 4 3 4 4 4 3 4 4 4 4 4
5 5 3 3 5 6 6 7 6 4 4 2 6 5 6 6 6 5 3 4 4 4 4 4 4 4 3 3 3 4 4 4 5 6 6 6 5 5 5 5 4 4
4 4 3 3 5 5 5 5 5 5 7 8 5 3 3 3 5 6 6 6 5 5 5 4 5 4 2 2 4 4 5 6 5 7 7 8 7 6 5 6 6 6
5 4 4 5 6 6 7 6 2 4 4 3 3 4 4 5 5 5 6 6 6 5 5 5 4 2 4 4 3 6 6 6 5 6 8 8 8 7 6 6 5 6
4 6 6 5 5 5 4 6 4 0 0 3 4 5 6 5 6 7 6 5 5 5 5 5 4 2 6 2 6 11 9 7 7 6 6 7 7 8 7 6 5 5
2 4 4 5 6 6 4 4 3 4 3 5 6 8 6 6 7 6 6 6 6 6 6 4 3 4 2 5 9 11 11 8 7 7 6 6 6 6 5 5 4 5
4 2 4 6 5 5 5 5 4 5 6 7 7 6 7 8 7 7 6 5 6 8 6 4 3 6 4 9 9 11 14 11 7 8 8 7 7 7 6 4 3 3
7 7 5 6 6 6 6 5 5 5 3 8 8 7 9 8 7 8 6 6 6 7 7 5 5 9 6 11 12 14 14 12 8 8 7 7 7 5 4 4 6 5
8 8 6 5 7 9 9 7 6 9 7 5 7 8 9 8 8 8 7 6 6 5 7 7 6 12 8 9 14 15 15 11 8 7 7 7 7 8 6 6 6 6
8 8 7 6 5 8 10 9 8 8 9 7 6 9 8 9 8 8 8 8 7 7 8 9 8 15 12 7 9 14 14 9 8 9 8 8 7 7 7 5 6 8
8 8 8 8 8 8 9 10 8 9 10 9 8 9 8 8 8 8 7 8 9 8 9 9 9 14 14 10 5 8 10 8 9 9 9 9 6 6 7 8 7 5
9 8 7 8 9 8 8 10 10 8 10 9 8 9 10 8 6 9 9 9 11 10 8 9 8 13 16 13 9 6 6 8 7 9 9 9 7 6 6 7 8 12
9 9 9 8 8 8 6 9 10 9 9 9 9 8 10 7 7 9 10 10 10 10 14 12 9 11 14 14 12 10 7 5 7 8 9 7 7 7 6 6 6 7
9 9 9 8 7 7 7 7 7 9 10 11 10 8 7 8 7 10 11 9 9 10 11 10 10 9 11 14 13 12 10 7 5 7 8 7 5 6 7 5 4 4
Wind_Direction
179 181 199 205 213 215 203 191 181 170 168 163 177 176 172 176 171 175 177 184 189 180 178 176 157 149 152 156 162 157 162 164 152 154 158 158 160 157 172 170 163 173
181 186 190 195 201 201 201 198 191 180 177 175 173 166 151 129 171 166 169 185 191 187 167 155 148 147 151 154 155 149 141 141 153 155 147 153 160 165 173 175 178 162
178 179 181 186 193 193 185 179 178 184 183 180 160 153 135 160 156 167 168 171 185 170 164 159 148 152 155 155 153 152 151 151 159 157 150 157 151 166 176 168 158 173
184 181 178 182 183 186 175 164 170 167 156 164 174 160 165 160 162 165 170 165 167 166 163 159 162 157 157 156 148 153 156 162 164 151 145 135 161 159 162 159 153 155
185 174 172 172 173 173 163 165 168 168 174 175 156 154 148 148 155 155 155 157 158 154 156 158 157 161 158 152 152 142 144 151 155 155 149 163 172 151 155 147 154 167
186 165 164 168 172 165 173 177 170 157 148 121 105 96 135 148 150 153 155 148 150 139 135 137 150 161 159 152 148 155 151 152 172 159 154 165 159 137 145 152 152 160
180 164 172 173 169 170 177 182 163 155 143 136 125 108 38 311 148 155 150 145 138 132 134 139 142 147 155 145 149 151 154 154 158 163 156 152 139 143 143 156 165 172
191 168 169 168 169 174 175 168 153 140 142 134 136 121 112 250 205 143 141 139 134 130 132 138 141 143 146 147 147 142 145 155 157 150 138 142 139 161 169 177 170 173
163 179 168 178 173 172 163 159 153 148 148 144 144 149 137 161 192 145 143 138 128 132 133 139 149 150 159 152 155 153 156 161 158 148 143 149 163 181 181 161 158 177
172 128 115 191 185 177 166 158 150 151 151 140 151 156 142 186 177 142 139 134 127 129 134 142 147 154 164 168 162 159 152 158 163 163 164 175 176 171 167 164 169 151
33 43 86 349 343 341 124 115 121 148 151 144 158 161 150 163 146 139 134 131 136 140 134 147 160 159 160 159 177 172 173 163 173 176 177 181 176 169 168 158 156 147
113 113 111 113 97 64 55 55 43 14 9 157 170 159 155 154 146 153 148 144 143 143 141 152 155 157 157 165 163 143 134 148 168 176 178 133 110 96 105 107 122 117
99 87 114 118 124 124 127 125 129 141 105 306 213 155 147 142 150 149 157 139 135 121 133 133 121 118 126 117 127 126 121 130 114 93 86 88 80 87 84 86 101 111
123 118 130 130 127 126 122 123 120 114 127 114 273 157 144 152 157 133 89 81 88 93 79 83 97 87 72 78 105 117 118 105 115 112 98 83 79 74 81 86 91 93
106 124 106 112 116 111 93 112 117 148 177 167 240 146 132 124 109 114 106 88 73 78 73 63 70 63 53 51 102 99 105 113 121 119 110 97 87 83 76 83 80 79
115 127 129 137 128 113 121 137 133 145 178 171 170 114 107 100 102 95 101 106 98 80 73 68 57 42 8 333 237 133 118 113 111 116 114 113 110 98 81 71 77 85
142 157 156 137 134 110 92 115 133 93 66 125 119 101 97 99 104 99 88 87 88 90 78 65 52 18 347 278 171 130 121 120 116 107 107 113 112 110 103 88 79 84
125 152 137 120 124 124 145 128 120 124 133 130 110 104 94 94 93 96 95 94 94 85 78 71 60 2 7 135 141 132 123 116 109 102 93 83 83 88 92 93 83 69
360 72 103 115 129 124 125 137 125 124 139 120 109 106 98 95 99 94 90 86 95 96 81 62 59 9 78 112 119 113 105 102 91 98 98 98 99 100 98 86 58 80
25 27 35 71 77 82 89 92 98 96 100 116 111 100 100 99 90 86 80 75 75 90 88 63 56 7 64 111 117 105 101 98 102 98 92 83 70 49 39 81 81 58
33 42 37 52 88 93 81 71 82 89 70 71 100 105 105 99 99 91 78 73 68 73 83 62 31 8 26 111 114 110 104 100 94 85 78 70 66 73 48 26 55 77
42 44 42 35 64 91 93 91 86 85 79 41 60 88 84 92 79 79 80 75 63 63 70 53 27 14 6 18 105 115 110 103 96 86 78 63 56 55 63 49 48 57
26 43 48 54 40 58 79 77 66 79 78 78 67 58 58 59 77 73 68 70 65 57 63 58 36 12 5 6 29 91 96 105 109 104 93 85 55 43 54 60 60 65
22 30 40 53 59 51 71 91 91 79 82 86 79 88 71 57 53 76 67 62 63 55 49 64 50 21 10 6 22 44 101 107 101 100 100 97 86 58 62 59 54 59
24 30 31 35 53 57 37 84 88 88 93 82 76 67 84 72 68 67 65 59 60 64 49 53 44 31 16 12 17 43 69 91 101 104 99 95 105 91 71 72 59 53
26 30 32 35 38 55 54 43 85 97 93 88 85 75 70 80 66 69 66 55 50 52 51 44 47 34 24 24 24 29 58 76 64 97 105 110 103 100 94 71 69 61